Main page
METAR-TAF:

METAR-TAF

Airports :

Neil Armstrong Airport

Wapakoneta, Ohio, United States

latitude: 40-29-37N, longitude: 084-17-53W, elevation: 912 ft

Current weather observation

The report was made 28 minutes ago, at 09:55 UTC
Calm wind
Temperature 66°F
Humidity 94%
Pressure 30.09 in. Hg
Visibility: 10 miles
Scattered clouds at a height of 4700 ft
Broken clouds at a height of 6000 ft
Broken clouds at a height of 7000 ft

METAR: KAXV 120955Z AUTO 00000KT 10SM SCT047 BKN060 BKN070 19/18 A3009 RMK AO2

Time: 06:23 (10:23 UTC)


TAF: missing

Weather observations and forecasts of more than 4000 airports (METAR and TAF reports).

The available stations are represented by yellow and red dots on the map.

Hover mouse over dot to see the name of the station.

Then click to see weather observations and forecasts.

To change the map : click on the green buttons with a black cross to zoom in, on the green button with a dash to zoom out, or on the green arrows for adjacent maps.


METAR-TAF: